Weather in Thonon-les-Bains

France     46°22′17″N   6°29′05″E
temp.,
°C
wind,
m/s
gust,
m/s
humid.,
%
clouds,
%
prec.,
mm/h
press.,
hPa
HPBL,
m
22 january, fri
fri2201:00+2s51198100 6.0 1004546
04:00+2sse399498 0.9 1002378
07:00+2sse359899 2.8 1001193
10:00+3se228848 0.0 99846
13:00+6ne129656 0.1 995119
16:00+3nne1198100 0.9 99254
19:00+1ssw2499100 6.1 994173
22:000sw3599100 6.0 996204
23 january, sat
sat2301:00−1sw2499100 13.8 1000284
04:00−2s2395100 2.1 1001101
07:00−4sse2389100 2.2 100256
10:00−3s238777 0.0 1001125
13:00+1s248839 0.0 998426
16:00+1sw139572 0.0 996201
19:00−3s238885 0.0 99863
22:00−1sw4899100 3.7 1000557
24 january, sun
sun2401:00−2ssw3596100 6.3 1002318
04:00−4ssw2496100 0.2 1003138
07:00−6se1292100 0.3 100553
10:00−4se118724 0.0 100582
13:00−1ssw238812 0.0 1003436
16:00−1ssw259167 0.0 1002378
19:00−3ssw259583 1.3 1004342
22:00−4s3694100 1.1 1005263
25 january, mon
mon2501:00−3sw4997100 4.8 1007918
04:00−4sw4997100 1.9 1009822
07:00−5ssw2496100 2.9 1013160
10:00−4sw359497 0.7 1016440
13:00−2ssw358491 0.9 1017749
16:00−2ssw3587100 0.1 1017536
19:00−5sse2390100 0.1 1020107
22:00−5sse2390100 0.1 102198
26 january, tue
tue2601:00−6sse338898 0.2 102272
04:00−5sse239496 0.3 1022101
07:00−4sse239698 1.3 1023118
10:00−3s229398 0.1 1023133
13:000wsw229366 0.1 1022371
16:000sw239498 0.0 1020241
19:00−2sse129099 0.0 102156
22:00−2sse2290100 0.5 102175